Regional Weather Roundup
Issued by NWS

Home | Current Version | Previous Version | Text Only | Print | Product List | Glossary Off
Versions: 1 2 3 4 5 6 7 8 9 10 11 12 13 14 15 16 17 18 19 20 21 22 23 24 25 26 27 28 29 30 31 32 33 34 35 36 37 38 39 40 41 42 43 44 45 46 47 48 49 50

000
ASUS43 KIND 241409
RWRIN

WEATHER ROUNDUP FOR INDIANA
NATIONAL WEATHER SERVICE INDIANAPOLIS IN
900 AM EST SAT FEB 24 2018

NOTE: "FAIR" INDICATES FEW OR NO CLOUDS BELOW 12,000 FEET WITH NO
SIGNIFICANT WEATHER AND/OR OBSTRUCTIONS TO VISIBILITY.

* - STATION DOES NOT REPORT WEATHER SUCH AS PRECIPITATION OR FOG.

+ - STATION NOT QUALITY CONTROLLED BY THE NATIONAL WEATHER SERVICE.
    USE DATA WITH CAUTION...ESPECIALLY DEWPOINT AND RELATIVE
    HUMIDITY OBSERVATIONS.

INZ001>003-010>013-019-020-241500-
NORTHWEST INDIANA

CITY           SKY/WX    TMP DP  RH WIND       PRES   REMARKS
GARY /AIRPORT/ CLOUDY    36  32  87 NE10      30.17F WCI  28
LA PORTE +     PTSUNNY   35  32  89 E9        30.17S WCI  28
MICHIGAN CITY+ CLOUDY    36  32  87 E5        30.18S WCI  32
MONTICELLO +   RAIN      37  35  94 E7        30.13F WCI  31
RENSSELAER +   LGT RAIN  36  32  87 E12       30.15S WCI  27
VALPARAISO     CLOUDY    37  32  82 E8        30.16F WCI  31

$$

LMZ046-743>745-241500-
SOUTHERN LAKE MICHIGAN

STATION/POSITION TIME  TEMP    WIND        PRES    WAVE
                       AIR SEA DIR/SP/G            HT
                 (UTC) (F)     (DEG/KT/KT) (MB)    (FT)
BURNS HARBOR     1340   34      60/ 10/ 12 1022.4R
MICHIGAN CITY    1340   35      50/ 10/ 11   N/A

$$

INZ004-005-014>016-021>024-241500-
NORTH CENTRAL INDIANA

CITY           SKY/WX    TMP DP  RH WIND       PRES   REMARKS
ELKHART        CLOUDY    36  30  80 E9        30.18S WCI  29
GOSHEN         CLOUDY    37  32  82 E9        30.18R WCI  30
LOGANSPORT +   LGT RAIN  36  34  93 E10       30.14F WCI  28
PERU/GRISSOM   LGT RAIN  38  38 100 E12       30.13F WCI  31
ROCHESTER +    LGT RAIN  37  37 100 E9        30.17R WCI  31
SOUTH BEND     CLOUDY    35  30  82 E7        30.18F WCI  29
WARSAW +       CLOUDY    36  34  93 MISG      30.19R FOG

$$

INZ006>009-017-018-025>027-241500-
NORTHEAST INDIANA

CITY           SKY/WX    TMP DP  RH WIND       PRES   REMARKS
AUBURN +       DRIZZLE   36  34  93 E7        30.19S WCI  30
FORT WAYNE     LGT RAIN  38  36  92 E14       30.18S FOG     WCI  30
HUNTINGTON +   LGT RAIN  37  36  96 E6        30.17S WCI  32
KENDALLVILLE + CLOUDY    36  33  91 E8        30.16F WCI  29

$$

INZ028-029-035-036-043>045-051>053-241500-
WEST CENTRAL INDIANA

CITY           SKY/WX    TMP DP  RH WIND       PRES   REMARKS
CRAWFORDSVL +  FLURRIES  38  38 100 E9          N/A  WCI  32
GREENCASTLE +  RAIN      41  39  93 SE8       30.11S
LAFAYETTE      LGT RAIN  38  38 100 E12       30.14R FOG     WCI  30
TERRE HAUTE    HVY RAIN  43  43 100 E9        30.10S FOG

$$

INZ030>032-037>040-046>048-054>057-064-065-241500-
CENTRAL INDIANA

CITY           SKY/WX    TMP DP  RH WIND       PRES   REMARKS
ANDERSON       CLOUDY    41  39  93 MISG      30.14
COLUMBUS       LGT RAIN  45 N/A N/A N6        30.14F FOG
FISHERS *+     CLOUDY    39  39 100 E3        30.14
GREENWOOD *+   CLOUDY    41 -47   2 E6        30.13F
INDIANAPOLIS   RAIN      42  41  96 E6        30.13R FOG
-EAGLE CREEK   RAIN      42  40  92 NE5       30.12F FOG
KOKOMO +       LGT RAIN  39  38  96 E12       30.14F FOG     WCI  32
MARION +       LGT RAIN  38  38 100 E12       30.16S WCI  30
MT COMFORT *+  CLOUDY    41  41 100 E6        30.13S
SHELBYVILLE    LGT RAIN  45  42  89 E5        30.13S
ZIONSVILLE +   LGT RAIN  39  39 100 E6        30.13F WCI  35

$$

INZ033-034-041-042-049-050-058-059-241500-
EAST CENTRAL INDIANA

CITY           SKY/WX    TMP DP  RH WIND       PRES   REMARKS
MUNCIE         LGT RAIN  43  40  89 E8        30.14S FOG
RICHMOND +     RAIN      41  41 100 NE3       30.16R

$$

INZ060-061-067>069-081>083-085>088-241500-
SOUTHWEST INDIANA

CITY           SKY/WX    TMP DP  RH WIND       PRES   REMARKS
EVANSVILLE     HVY RAIN  48  48 100 NE12      30.09R VSB 1
HUNTINGBURG +  LGT RAIN  48  47  96 NE12      30.08F FOG
WASHINGTON +   LGT RAIN  46  45  94 E10       30.08R

$$

INZ062-063-066-070>080-084-089>092-241500-
SOUTH CENTRAL AND SOUTHEAST INDIANA

CITY           SKY/WX    TMP DP  RH WIND       PRES   REMARKS
BATESVILLE +   CLOUDY    45  45 100 MISG      30.11F FOG
BEDFORD +      HVY RAIN  45  43  93 E7        30.12R
BLOOMINGTON    LGT RAIN  45  43  93 E8        30.10S FOG
FRENCH LICK *+ CLOUDY    45 N/A N/A NE13      30.08F
MADISON *+     CLOUDY    46  45  93 NE9G16    30.10S
NORTH VERNON + RAIN      45  45 100 N6        30.13R
SEYMOUR +      RAIN      48  46  93 NE9       30.11F

$$





USA.gov is the U.S. government's official web portal to all federal, state and local government web resources and services.